Weather History for KLBB - November, 2012

Change the Weather History Date:

Friday, November 16, 2012

  Actual Average Record
Temperature  
Mean Temperature 48 °F 50 °F  
Max Temperature 64 °F 63 °F 83 °F (1966)
Min Temperature 32 °F 36 °F 11 °F (1916)
Degree Days  
Heating Degree Days 17 16  
Month to date heating degree days 150 199  
Since 1 July heating degree days 363 381  
Cooling Degree Days 0 0  
Month to date cooling degree days 17 0  
Year to date cooling degree days 2321 1801  
Moisture  
Dew Point 33 °F    
Average Humidity 56    
Maximum Humidity 71    
Minimum Humidity 41    
Precipitation  
Precipitation 0.00 in 0.02 in 1.25 in (2004)
Month to date precipitation 0.01 0.49  
Year to date precipitation 10.75 18.00  
Snow  
Snow 0.00 in 0.00 in 10.30 in (1980)
Month to date snowfall 0.0 0.4  
Since 1 July snowfall 0.0 0.4  
Since 1 September snowfall 0.0 0.4  
Snow Depth 0.00 in    
Sea Level Pressure  
Sea Level Pressure 30.27 in    
Wind  
Wind Speed 8 mph (ESE)    
Max Wind Speed 15 mph    
Max Gust Speed 20 mph    
Visibility 10 miles    
Events      
T = Trace of Precipitation, MM = Missing Value Source: NWS Daily Summary

Daily Weather History Graph

Daily Weather History Graph

Search for Another Location

Airport or City:

Trip Planner

Search our weather history database for the weather conditions in past years. The results will help you decide how hot, cold, wet, or windy it might be!

Date:

Astronomy

Nov. 16, 2012 Rise Set
Actual Time 7:20 AM CST 5:43 PM CST
Civil Twilight 6:54 AM CST 6:09 PM CST
Nautical Twilight 6:23 AM CST 6:40 PM CST
Astronomical Twilight 5:54 AM CST 7:09 PM CST
Moon 10:14 AM CST (11/16) 8:47 PM CST (11/16)
Length of Visible Light 11h 15m
Length of Day
10h 22m
Waxing Crescent, 12% of the Moon is Illuminated
Nov 16
Waxing Crescent
Nov 20
First Quarter
Nov 28
Full
Dec 6
Last Quarter
Dec 13
New

Hourly Weather History & Observations

Time (CST) Temp. Windchill Dew Point Humidity Pressure Visibility Wind Dir Wind Speed Gust Speed Precip Events Conditions
12:53 AM 39.0 °F 32.8 °F 19.9 °F 46% 30.27 in 10.0 mi North 9.2 mph - N/A   Scattered Clouds
1:53 AM 39.0 °F 33.4 °F 19.9 °F 46% 30.26 in 10.0 mi North 8.1 mph - N/A   Scattered Clouds
2:53 AM 36.0 °F 30.3 °F 19.9 °F 52% 30.27 in 10.0 mi North 6.9 mph - N/A   Clear
3:53 AM 36.0 °F 29.6 °F 21.0 °F 55% 30.27 in 10.0 mi North 8.1 mph - N/A   Clear
4:53 AM 32.0 °F 27.5 °F 19.0 °F 59% 30.29 in 10.0 mi North 4.6 mph - N/A   Scattered Clouds
5:53 AM 37.4 °F 32.8 °F 23.0 °F 56% 30.32 in 10.0 mi North 5.8 mph - N/A   Mostly Cloudy
6:53 AM 37.0 °F 32.4 °F 23.0 °F 57% 30.32 in 10.0 mi NNW 5.8 mph - N/A   Mostly Cloudy
7:53 AM 37.0 °F 31.6 °F 24.1 °F 59% 30.33 in 10.0 mi North 6.9 mph - N/A   Mostly Cloudy
8:53 AM 41.0 °F 35.8 °F 27.0 °F 57% 30.35 in 10.0 mi NNE 8.1 mph - N/A   Mostly Cloudy
9:53 AM 46.9 °F - 28.0 °F 48% 30.35 in 10.0 mi ENE 5.8 mph - N/A   Mostly Cloudy
10:53 AM 52.0 °F - 34.0 °F 50% 30.35 in 10.0 mi East 3.5 mph - N/A   Clear
11:53 AM 57.0 °F - 37.9 °F 49% 30.31 in 10.0 mi SE 8.1 mph - N/A   Partly Cloudy
12:53 PM 62.1 °F - 42.1 °F 48% 30.27 in 10.0 mi SSE 12.7 mph - N/A   Scattered Clouds
1:53 PM 62.1 °F - 42.1 °F 48% 30.24 in 10.0 mi South 6.9 mph - N/A   Scattered Clouds
2:53 PM 63.0 °F - 41.0 °F 45% 30.23 in 10.0 mi South 9.2 mph - N/A   Mostly Cloudy
3:53 PM 62.1 °F - 39.9 °F 44% 30.22 in 10.0 mi SSE 12.7 mph - N/A   Clear
4:53 PM 63.0 °F - 39.9 °F 43% 30.22 in 10.0 mi SSE 11.5 mph - N/A   Mostly Cloudy
5:53 PM 57.9 °F - 39.9 °F 51% 30.22 in 10.0 mi SSE 9.2 mph - N/A   Mostly Cloudy
6:53 PM 54.0 °F - 39.9 °F 59% 30.24 in 10.0 mi SE 8.1 mph - N/A   Mostly Cloudy
7:53 PM 51.1 °F - 39.0 °F 63% 30.27 in 10.0 mi SE 8.1 mph - N/A   Mostly Cloudy
8:53 PM 48.9 °F - 39.0 °F 69% 30.27 in 10.0 mi SSE 8.1 mph - N/A   Mostly Cloudy
9:53 PM 46.0 °F 41.9 °F 37.0 °F 71% 30.26 in 10.0 mi SE 8.1 mph - N/A   Partly Cloudy
10:53 PM 46.9 °F - 37.9 °F 71% 30.25 in 10.0 mi SE 6.9 mph - N/A   Partly Cloudy
11:53 PM 46.9 °F - 39.0 °F 74% 30.24 in 10.0 mi South 9.2 mph - N/A   Partly Cloudy